Weather History for Lee's Summit, MO

Change the Weather History Date:

Monday, June 17, 2013

  Actual Average (KMKC) Record (KMKC)
Temperature  
Mean Temperature 70 °F -  
Max Temperature 75 °F 81 °F 93 °F (1998)
Min Temperature 66 °F 63 °F 52 °F (1999)
Cooling Degree Days 6    
Growing Degree Days 20 (Base 50)    
Moisture  
Dew Point 65 °F    
Average Humidity 84    
Maximum Humidity 94    
Minimum Humidity 69    
Precipitation  
Precipitation 0.62 in - - ()
Sea Level Pressure  
Sea Level Pressure 29.97 in    
Wind  
Wind Speed 7 mph (SSW)    
Max Wind Speed 21 mph    
Max Gust Speed 30 mph    
Visibility 8 miles    
Events Rain , Thunderstorm    
Averages and records for this station are not official NWS values.
T = Trace of Precipitation, MM = Missing Value Source: NWS Daily Summary

Daily Weather History Graph

Daily Weather History Graph

Search for Another Location

Airport:

Trip Planner

Search our weather history database for the weather conditions in past years. The results will help you decide how hot, cold, wet, or windy it might be!

Date:

Astronomy

Jun. 17, 2013 Rise Set
Actual Time 5:51 AM CDT 8:45 PM CDT
Civil Twilight 5:19 AM CDT 9:17 PM CDT
Nautical Twilight 4:38 AM CDT 9:58 PM CDT
Astronomical Twilight 3:52 AM CDT 10:44 PM CDT
Moon 2:27 PM CDT (6/17) 1:24 AM CDT (6/17)
Length of Visible Light 15h 58m
Length of Day
14h 53m
First Quarter, 60% of the Moon is Illuminated
Jun 17
First Quarter
Jun 23
Full
Jun 29
Last Quarter
Jul 8
New
Jul 15
First Quarter

Hourly Weather History & Observations

Time (CDT) Temp. Dew Point Humidity Pressure Visibility Wind Dir Wind Speed Gust Speed Precip Events Conditions
12:53 AM 71.1 °F 69.1 °F 93% 29.94 in 8.0 mi ENE 5.8 mph - N/A   Partly Cloudy
1:53 AM 71.1 °F 69.1 °F 93% 29.93 in 7.0 mi ESE 4.6 mph - N/A   Scattered Clouds
2:53 AM 71.1 °F 69.1 °F 93% 29.90 in 8.0 mi ESE 4.6 mph - N/A   Clear
3:36 AM 71.6 °F 69.8 °F 94% 29.93 in 9.0 mi SE 9.2 mph - N/A   Scattered Clouds
3:53 AM 72.0 °F 69.1 °F 91% 29.90 in 10.0 mi SSE 8.1 mph 17.3 mph N/A Thunderstorm Partly Cloudy
4:28 AM 71.6 °F 64.4 °F 78% 29.93 in 10.0 mi SSW 17.3 mph 29.9 mph N/A   Scattered Clouds
4:53 AM 72.0 °F 62.1 °F 71% 29.91 in 10.0 mi South 10.4 mph - N/A   Partly Cloudy
5:53 AM 69.1 °F 63.0 °F 81% 29.91 in 10.0 mi SW 5.8 mph - N/A   Clear
6:53 AM 69.1 °F 64.0 °F 84% 29.91 in 10.0 mi North 4.6 mph - N/A   Clear
7:53 AM 69.1 °F 64.9 °F 87% 29.93 in 10.0 mi Calm Calm - N/A   Clear
8:53 AM 71.1 °F 64.9 °F 81% 29.97 in 10.0 mi ESE 5.8 mph - N/A   Mostly Cloudy
9:53 AM 72.0 °F 66.0 °F 81% 29.96 in 10.0 mi East 5.8 mph - N/A   Mostly Cloudy
10:25 AM 73.4 °F 66.2 °F 78% 29.99 in 10.0 mi SSW 5.8 mph - N/A   Overcast
10:53 AM 72.0 °F 66.0 °F 81% 29.98 in 10.0 mi SW 4.6 mph - N/A   Mostly Cloudy
11:53 AM 73.9 °F 66.9 °F 79% 29.99 in 10.0 mi WSW 6.9 mph - N/A   Scattered Clouds
12:49 PM 75.2 °F 64.4 °F 69% 30.00 in 10.0 mi West 6.9 mph - N/A Thunderstorm Overcast
12:53 PM 75.0 °F 64.9 °F 71% 29.99 in 10.0 mi West 5.8 mph - N/A Thunderstorm Thunderstorm
1:50 PM 73.4 °F 66.2 °F 78% 30.01 in 10.0 mi SSW 5.8 mph - N/A Thunderstorm Thunderstorm
1:53 PM 72.0 °F 66.9 °F 84% 29.99 in 10.0 mi South 4.6 mph - N/A Thunderstorm Thunderstorm
2:00 PM 71.6 °F 66.2 °F 83% 30.00 in 10.0 mi SSW 8.1 mph 17.3 mph N/A Thunderstorm Thunderstorm
2:07 PM 71.6 °F 66.2 °F 83% 30.00 in 10.0 mi SSW 11.5 mph 17.3 mph N/A Thunderstorm Thunderstorm
2:15 PM 69.8 °F 64.4 °F 83% 30.00 in 1.8 mi South 9.2 mph - 0.22 in Rain , Thunderstorm Heavy Thunderstorms and Rain
2:19 PM 69.8 °F 66.2 °F 88% 30.00 in 0.8 mi SSW 12.7 mph - 0.35 in Rain , Thunderstorm Heavy Thunderstorms and Rain
2:33 PM 68.0 °F 64.4 °F 88% 29.99 in 2.0 mi SW 11.5 mph 20.7 mph 0.48 in Rain , Thunderstorm Light Thunderstorms and Rain
2:38 PM 68.0 °F 64.4 °F 88% 29.99 in 1.8 mi SSW 10.4 mph 20.7 mph 0.58 in Rain , Thunderstorm Heavy Thunderstorms and Rain
2:47 PM 69.8 °F 64.4 °F 83% 30.00 in 3.0 mi WSW 8.1 mph - 0.59 in Rain , Thunderstorm Light Thunderstorms and Rain
2:53 PM 68.0 °F 64.9 °F 90% 29.98 in 9.0 mi SW 5.8 mph - 0.59 in Rain , Thunderstorm Light Thunderstorms and Rain
3:53 PM 68.0 °F 63.0 °F 84% 29.99 in 10.0 mi East 20.7 mph 27.6 mph 0.00 in Thunderstorm Mostly Cloudy
3:59 PM 66.2 °F 62.6 °F 88% 30.01 in 10.0 mi East 11.5 mph 27.6 mph N/A Thunderstorm Mostly Cloudy
4:21 PM 66.2 °F 60.8 °F 83% 29.98 in 10.0 mi SSE 8.1 mph 19.6 mph 0.02 in Rain Light Rain
4:39 PM 68.0 °F 62.6 °F 83% 29.98 in 10.0 mi Calm Calm - 0.03 in Thunderstorm Overcast
4:53 PM 66.9 °F 62.1 °F 84% 29.95 in 10.0 mi WNW 8.1 mph - 0.03 in   Scattered Clouds
5:53 PM 70.0 °F 64.0 °F 81% 29.94 in 10.0 mi West 3.5 mph - N/A   Clear
7:53 PM 73.9 °F 64.9 °F 73% 29.94 in 10.0 mi Calm Calm - N/A   Clear
8:53 PM 71.1 °F 64.9 °F 81% 29.94 in 10.0 mi Calm Calm - N/A   Clear
9:53 PM 68.0 °F 64.9 °F 90% 29.95 in 10.0 mi Calm Calm - N/A   Clear
10:53 PM 66.0 °F 64.0 °F 93% 29.97 in 5.0 mi Calm Calm - N/A   Clear
11:49 PM 66.2 °F 64.4 °F 94% 30.00 in 1.8 mi SW 4.6 mph - N/A   Clear
11:53 PM 66.0 °F 64.0 °F 93% 29.98 in 1.8 mi SW 4.6 mph - N/A   Clear
11:57 PM 66.2 °F 64.4 °F 94% 30.00 in 3.0 mi SW 3.5 mph - N/A   Clear